This is the latest recevied weather packets stored in our database for station/object KD4UFD. If no packets are shown the sender has not sent any weather packets the latest 10 day(s).
| Time | Temp. | Humidity | Pressure | Rain* | Wind** | Luminosity | Snow |
|---|---|---|---|---|---|---|---|
| 1777696608 | 12.78° C | 58% | 1014.8 hPa | 0 mm | - | 0 W/m² | - |
| 1777696305 | 13.33° C | 58% | 1014.7 hPa | 0 mm | - | 0 W/m² | - |
| 1777696004 | 13.33° C | 58% | 1014.8 hPa | 0 mm | - | 0 W/m² | - |
| 1777695701 | 13.33° C | 58% | 1014.5 hPa | 0 mm | - | 0 W/m² | - |
| 1777695399 | 13.33° C | 58% | 1014.6 hPa | 0 mm | - | 0 W/m² | - |
| 1777695096 | 13.33° C | 57% | 1014.6 hPa | 0 mm | - | 0 W/m² | - |
| 1777694793 | 13.89° C | 56% | 1014.7 hPa | 0 mm | - | 0 W/m² | - |
| 1777694490 | 13.89° C | 56% | 1014.6 hPa | 0 mm | - | 0 W/m² | - |
| 1777694186 | 13.89° C | 57% | 1014.5 hPa | 0 mm | - | 0 W/m² | - |
| 1777693883 | 13.89° C | 57% | 1014.5 hPa | 0 mm | - | 0 W/m² | - |
| 1777693581 | 13.89° C | 57% | 1014.7 hPa | 0 mm | - | 0 W/m² | - |
| 1777693279 | 13.89° C | 57% | 1014.4 hPa | 0 mm | - | 0 W/m² | - |
| 1777692977 | 13.89° C | 57% | 1014.4 hPa | 0 mm | - | 0 W/m² | - |
| 1777692674 | 13.89° C | 57% | 1014.5 hPa | 0 mm | - | 0 W/m² | - |
| 1777692370 | 13.89° C | 57% | 1014.5 hPa | 0 mm | - | 0 W/m² | - |
| 1777692066 | 14.44° C | 57% | 1014.5 hPa | 0 mm | - | 0 W/m² | - |
| 1777691764 | 14.44° C | 59% | 1014.5 hPa | 0 mm | - | 0 W/m² | - |
| 1777691462 | 14.44° C | 57% | 1014.3 hPa | 0 mm | - | 0 W/m² | - |
| 1777691161 | 14.44° C | 60% | 1014.4 hPa | 0 mm | - | 0 W/m² | - |
| 1777690858 | 14.44° C | 59% | 1014.5 hPa | 0 mm | - | 0 W/m² | - |
| 1777690555 | 14.44° C | 61% | 1014.6 hPa | 0 mm | - | 0 W/m² | - |
| 1777690253 | 15° C | 61% | 1014.3 hPa | 0 mm | - | 0 W/m² | - |
| 1777689950 | 15° C | 61% | 1014.5 hPa | 0 mm | - | 0 W/m² | - |
| 1777689649 | 15° C | 62% | 1014.3 hPa | 0 mm | - | 0 W/m² | - |
| 1777689346 | 15° C | 62% | 1014.2 hPa | 0 mm | - | 0 W/m² | - |
* Rain latest hour (hover to see other rain measurements)
** Current wind speed in m/s (hover to see current wind gust speed)